TimePDT,TemperatureF,Dew PointF,Humidity,Sea Level PressureIn,VisibilityMPH,Wind Direction,Wind SpeedMPH,Gust SpeedMPH,PrecipitationIn,Events,Conditions,WindDirDegrees,DateUTC
12:53 AM,66.9,46.0,47,29.98,10.0,NW,8.1,-,N/A,,Clear,320,2013-10-14 07:53:00
1:53 AM,64.9,46.0,50,29.99,10.0,NNW,6.9,-,N/A,,Clear,330,2013-10-14 08:53:00
2:53 AM,66.0,42.1,42,29.99,10.0,NNW,6.9,-,N/A,,Clear,340,2013-10-14 09:53:00
3:53 AM,60.1,45.0,57,29.99,10.0,Calm,Calm,-,N/A,,Clear,0,2013-10-14 10:53:00
4:53 AM,59.0,45.0,60,30.00,10.0,Calm,Calm,-,N/A,,Clear,0,2013-10-14 11:53:00
5:53 AM,68.0,30.0,24,30.01,10.0,West,6.9,-,N/A,,Clear,270,2013-10-14 12:53:00
6:53 AM,68.0,30.0,24,30.02,7.0,West,5.8,-,N/A,,Clear,260,2013-10-14 13:53:00
7:53 AM,69.1,32.0,25,30.04,10.0,West,3.5,-,N/A,,Clear,260,2013-10-14 14:53:00
8:53 AM,75.9,28.0,17,30.05,10.0,NW,8.1,-,N/A,,Clear,310,2013-10-14 15:53:00
9:53 AM,79.0,27.0,15,30.05,10.0,NNW,6.9,-,N/A,,Clear,330,2013-10-14 16:53:00
10:53 AM,80.1,27.0,14,30.04,10.0,North,4.6,-,N/A,,Clear,350,2013-10-14 17:53:00
11:53 AM,81.0,27.0,14,30.03,10.0,WSW,5.8,-,N/A,,Clear,250,2013-10-14 18:53:00
12:53 PM,84.0,25.0,12,30.00,10.0,Variable,5.8,-,N/A,,Clear,0,2013-10-14 19:53:00
1:53 PM,84.9,24.1,11,29.98,10.0,North,6.9,-,N/A,,Clear,350,2013-10-14 20:53:00
2:53 PM,84.9,24.1,11,29.96,10.0,Calm,Calm,-,N/A,,Clear,0,2013-10-14 21:53:00
3:53 PM,84.0,24.1,11,29.94,10.0,Variable,4.6,-,N/A,,Clear,0,2013-10-14 22:53:00
4:53 PM,84.0,21.9,10,29.93,10.0,Variable,3.5,-,N/A,,Clear,0,2013-10-14 23:53:00
5:53 PM,82.0,26.1,13,29.94,10.0,Calm,Calm,-,N/A,,Clear,0,2013-10-15 00:53:00
6:53 PM,80.1,23.0,12,29.95,10.0,Calm,Calm,-,N/A,,Clear,0,2013-10-15 01:53:00
7:53 PM,78.1,26.1,15,29.96,10.0,WNW,5.8,-,N/A,,Clear,300,2013-10-15 02:53:00
8:53 PM,78.1,26.1,15,29.97,10.0,WNW,3.5,-,N/A,,Clear,290,2013-10-15 03:53:00
9:53 PM,72.0,28.9,20,29.98,10.0,West,4.6,-,N/A,,Clear,270,2013-10-15 04:53:00
10:53 PM,71.1,30.0,22,29.98,10.0,West,5.8,-,N/A,,Clear,270,2013-10-15 05:53:00
11:53 PM,70.0,28.9,22,29.98,10.0,Calm,Calm,-,N/A,,Clear,0,2013-10-15 06:53:00